Regional Weather Roundup
Issued by NWS Upton, NY

Current Version | Previous Version | Text Only | Print | Product List | Glossary Off
Versions: 1 2 3 4 5 6 7 8 9 10 11 12 13 14 15 16 17 18 19 20 21 22 23 24 25 26 27 28

000
ASUS41 KOKX 231404
RWROKX

REGIONAL WEATHER ROUNDUP
NATIONAL WEATHER SERVICE NEW YORK NY
1000 AM EDT TUE AUG 23 2016

NOTE: "FAIR" INDICATES FEW OR NO CLOUDS BELOW 12,000 FEET WITH NO
SIGNIFICANT WEATHER AND/OR OBSTRUCTIONS TO VISIBILITY.

NYZ071-072-176-178-NJZ106-104-231500-
NEW YORK CITY METRO AREA

CITY           SKY/WX    TMP DP  RH WIND       PRES   REMARKS
Central Park   SUNNY     70  50  49 MISG      30.35S
LaGuardia APRT SUNNY     73  49  42 NW7       30.32R
Kennedy INTL   MOSUNNY   73  46  38 N5        30.33R
Newark/Liberty SUNNY     74  50  42 NW6       30.32S
Bronx Bot Gard   N/A     72  48  43 NW6       30.33F
Wall St Helipt SUNNY     75  55  50 NE3       30.33S
Teterboro      SUNNY     73  51  46 N8        30.32R
$$

NYZ177-179-078>081-231500-
LONG ISLAND NEW YORK

CITY           SKY/WX    TMP DP  RH WIND       PRES   REMARKS
Farmingdale    SUNNY     74  47  38 N8        30.32S
MacArthur/ISP  SUNNY     74  50  42 NW8       30.31S
Shirley        SUNNY     73  52  47 VRB6      30.32S
Riverhead      NOT AVBL
Westhampton    SUNNY     73  51  46 NW8       30.33R
Southampton      N/A     72  57  60 N7        30.28R
Bridgehampton  NOT AVBL
East Hampton   FAIR      71  55  58 N5        30.31R
Montauk          N/A     70  56  61 VRB3      30.32R
$$

NYZ052-065-067-231500-
HUDSON VALLEY

CITY           SKY/WX    TMP DP  RH WIND       PRES   REMARKS
White Plains   SUNNY     71  50  47 W6        30.33R
Newburgh       SUNNY     66  57  72 W5        30.35R
Montgomery     SUNNY     68  58  70 VRB3      30.33S
Poughkeepsie     N/A     69  55  60 CALM      30.32S
Albany         MOSUNNY   65  53  65 CALM      30.32S
$$

NJZ001-105-106-008-010-013-015-019>022-104-231500-
NEW JERSEY

CITY           SKY/WX    TMP DP  RH WIND       PRES   REMARKS
Newark/Liberty SUNNY     74  50  42 NW6       30.32S
Teterboro      SUNNY     73  51  46 N8        30.32R
Caldwell       SUNNY     70  55  59 CALM      30.34R
Morristown     SUNNY     72  55  56 CALM      30.33S
Somerville     SUNNY     71  56  58 CALM      30.32S
Linden         FAIR      73  49  42 CALM      30.35R
Sussex         SUNNY     66  57  72 CALM      30.35R
Abdover          N/A     67  54  63 CALM      30.35S
Trenton        SUNNY     71  54  54 N6        30.34R
Millville      SUNNY     74  54  49 NE3       30.35R
Atlantic City  SUNNY     74  51  44 N7        30.34R
Wrightstown    SUNNY     73  53  49 N5        30.31S
Toms River     SUNNY     72  53  51 VRB3      30.34R
Belmar         SUNNY     74  51  44 NW8       30.34R
$$

PAZ047>061-062-071-231500-
EASTERN PENNSYLVANIA

CITY           SKY/WX    TMP DP  RH WIND       PRES   REMARKS
Philadelphia   MOSUNNY   74  50  42 CALM      30.34S
Allentown      SUNNY     69  54  58 CALM      30.35S
Scranton       SUNNY     65  55  70 W5        30.36R
$$

CTZ002-004>006-009-010-012-RIZ004-006-007-MAZ004-011-015-231500-
SOUTHERN NEW ENGLAND
 IN CT

CITY           SKY/WX    TMP DP  RH WIND       PRES   REMARKS
Bradley INTL   SUNNY     69  52  54 E3        30.31F
Hartford       SUNNY     71  53  52 CALM      30.31S
Danbury        SUNNY     70  50  49 VRB5      30.34R
Wtrbury/Oxford SUNNY     66  52  59 N6        30.35R
Bridgeport     SUNNY     74  52  46 N7        30.31S
Meriden        SUNNY     72  54  53 CALM      30.31S
New Haven      SUNNY     71  52  50 NW6       30.31S
Chester        FAIR      68  52  56 NW6       30.32S
Groton         SUNNY     74  53  48 N6        30.30R
Wilimantic     SUNNY     69  56  62 CALM      30.32R

 IN RI

CITY           SKY/WX    TMP DP  RH WIND       PRES   REMARKS
Providence     SUNNY     73  49  42 N8        30.30R
Block Island   SUNNY     70  56  61 N6        30.31
Westerly       SUNNY     73  49  42 NE6       30.31R
 IN MA

CITY           SKY/WX    TMP DP  RH WIND       PRES   REMARKS
Boston         SUNNY     72  50  45 VRB7      30.28R
Worcester      SUNNY     66  50  56 NW9       30.31R
Westfield      SUNNY     68  54  60 E3        30.30F
Provincetown   SUNNY     68  57  68 NW8       30.28R
Nantucket      SUNNY     72  55  55 NW10      30.28R
$$

ANZ330-335-338-340-345-350-353-355-231500-
COASTAL MARINE OBSERVATIONS


STATION/POSITION TIME  SKY/WX   TEMP    WIND        PRES    VSBY  WAVE
                                AIR SEA DIR/SP/G                  HT/PER
                 (UTC)          (F)     (DEG/KT/KT) (MB)    (MI)  (FT/S)
NY HARB ENTRANCE 1250            71 76  340/  4/  8 1026.3          1/13
20S FIRE ISLAND  1250            70 76   20/ 10/ 14 1025.9          2/ 3
GREAT SOUTH BAY  1315            71 80  350/  6/ 10   N/A
23 SSW MONTAUK P 1250            68 74  330/  8/ 10 1026.2          2/11
15 E BARNEGAT LI 1300               76                N/A           2/13
HUDSON CANYON    1250            72 77              1025.6          3/ 5
KINGS POINT      1300            68 74              1026.4
EXECUTION ROCKS  1300            76     280/  2/  4   N/A
CENTRAL LI SOUND 1300            69 74  340/ 12/ 16   N/A           2/ 3
EASTERN LI SOUND 1300            71 69  350/ 10/ 12   N/A
ROBBINS REEF     1300            68     350/  7/  9 1026.0
$$


>>>>>>>>>>>>>>>>>>>>>>>>>>>> KEY <<<<<<<<<<<<<<<<<<<<<<<<<<<
>                                                          <
>     SKY/WX - Sky Condition/Present Weather               <
>     TMP    - Temperature in Fahrenheit                   <
>     DP     - Dew Point in Fahrenheit                     <
>     RH     - Relative Humidity in Percent                <
>     WIND   - Direction (from) and Speed in MPH           <
>     PRES   - Mean Sea Level Pressure (inches of Hg)      <
>     WCI    - Wind Chill Index                            <
>     VSB    - VISIBILITY IN MILES                         <
>     HX     - HEAT INDEX                                  <
>     TC     - TEMPERATURE IN CELSIUS                      <
>     VRB    - VARIABLE WIND DIRECTION                     <
>                                                          <
>>>>>>>>>>>>>>>>>>>>>>>>>>>> KEY <<<<<<<<<<<<<<<<<<<<<<<<<<<




USA.gov is the U.S. government's official web portal to all federal, state and local government web resources and services.